Showing default

3CAT-5/B (TYVAK-0162), 46293

Orbit data source: Space-Track

3CAT-5/B (TYVAK-0162), 46293 is a payload satellite owned by UPC (ES) in SSO that was launched on Thu, 03 Sep 2020 UTC via a VEGA launch vehicle from the French Guiana (FRGUI). Payload-class satellites include a variety of spacecraft equipped with specific instruments for various scientific and technological missions. These include communications satellites like Starlink; space stations such as the ISS; scientific satellites like the Hubble; Earth observation satellites from companies like Planet Labs, Umbra, and HawkEye 360; GPS; miniature CubeSats for education and research; and military/defense satellites.

Loading next visibility...
Identifier
46293, 2020-061X
Orbit
SSO
Country
Flag of ESES / SPN
Related business
Manufacturer
UPC
Mission
Non-operational Amateur Technology
Bus & Motor
CUBESAT 6U, Unknown motor
Mass
~10 kg wet, ~10 kg dry
Launch date (UTC)
2020-09-03 (6 years ago)
Launch vehicle
VEGA
Launch site
French Guiana (FRGUI)
Object type
Payload
Rocket body
Debris
Shape & HBR
Box, Unknown HBR
Radar Cross Section
0.080 m², Medium (>0.1 m² and < 1m²)

Expand to show TLE details & history
Last TLE update: 13 hours ago

TLE from 13 hours ago
0 3CAT-5/B (TYVAK-0162)
1 46293U 20061X   26120.15323997  .00017831  00000-0  36871-3 0  9991
2 46293  97.2436 184.0391 0000377 339.1038  21.0197 15.45864571313639
Epoch: 2026-04-30T03:40Z
TLE epoch observation values (Epoch: 2026-04-30T03:40:39.933Z)
Latitude
0.00007°
Longitude
-89.23123°
Altitude
431.729 km
Speed
7.653 km/s
True Right ascension
12h 16m 09s
True Declination
0° 00' 00"
Sunlit
Object was in full shadow at epoch
Visualization orbit readout
Latitude
Unknown
Longitude
Unknown
Altitude
Unknown
Speed
Unknown
Apparent Right ascension
Unknown
Apparent Declination
Unknown
Sunlit
N/A
Visualization observer readout
Local Sidereal Time
23:57:22
Azimuth
Unknown
Elevation
Unknown
Doppler factor
Unknown
Orbital elements
Apogee altitude
426.02 km
Perigee altitude
425.507 km
Semi-major axis
6,803.9 km
Eccentricity
0.00004
Inclination
97.2436°
RAAN
184.0391°
Arg. of periapsis
339.1038°
True anomaly
21.02125°
Mean anomaly
21.0197°
Eccentric anomaly
21.02047°
Mean motion
3.86729 °/min
Orbital period
93.09 mins
BSTAR
0.00036871
Loading maneuver chart data...
Computing Atmospheric mass density...
Loading historical data...
Loading historical data...
Loading historical data...
Loading historical data...
Loading historical data...
Loading historical data...
Loading historical data...

Documentation

Showing up to 5 results
|